Location: *
(38.9555°S, 57.3572°E)
Time: 00:35:17
(UTC+00:00)

Meteor 2-5 Rocket - Pass Details

Date: 15 July 2020
Orbit: 833 x 912 km, 81.2° (Epoch: 06 August)

Event Time Altitude Azimuth Distance (km) Brightness Sun altitude
Rises 13:33:31 0° 193° (SSW) 3,445 6.8 -5.4°
Reaches altitude 10° 13:35:57 10° 195° (SSW) 2,512 6.1 -5.8°
Maximum altitude 13:41:36 66° 276° (W) 949 4.3 -6.8°
Drops below altitude 10° 13:47:18 10° 357° (N) 2,532 6.5 -7.9°
Sets 13:49:46 0° 359° (N) 3,475 7.2 -8.3°
